Regional Weather Roundup
Issued by NWS

Home | Current Version | Previous Version | Text Only | Print | Product List | Glossary On
Versions: 1 2 3 4 5 6 7 8 9 10 11 12 13 14 15 16 17 18 19 20 21 22 23 24 25 26 27 28 29 30 31 32 33 34 35 36 37 38 39 40 41 42 43 44 45 46 47 48 49 50
000
ASUS43 KLOT 050512
RWRIL

ILLINOIS REGIONAL WEATHER ROUNDUP
NATIONAL WEATHER SERVICE CHICAGO/ROMEOVILLE IL
1100 PM CST SUN DEC 04 2016

NOTE: "FAIR" INDICATES FEW OR NO CLOUDS BELOW 12,000 FEET WITH NO
SIGNIFICANT WEATHER AND/OR OBSTRUCTIONS TO VISIBILITY.

* THESE STATIONS ARE NOT UNDER NWS QUALITY CONTROL. THEY ALSO MAY NOT
  REPORT WEATHER SUCH AS PRECIPITATION OR FOG.

ILZ001-002-007-009-015-016-024-050600-
NORTHWEST ILLINOIS

CITY           SKY/WX    TMP DP  RH WIND       PRES   REMARKS
MOLINE         CLOUDY    35  31  85 W10       29.96R WCI  27
STERLING*      CLOUDY    33  32  96 SW9       29.95R WCI  25
SAVANNA*       CLOUDY    34  31  91 W14       29.95R WCI  24
$$

ILZ003-004-008-010-011-017-018-050600-
NORTH CENTRAL ILLINOIS

CITY           SKY/WX    TMP DP  RH WIND       PRES   REMARKS
ROCKFORD       CLOUDY    34  30  85 SW9G20    29.94R FOG     WCI  27
FREEPORT*      CLOUDY    32  31  96 W10       29.94R WCI  24
ROCHELLE*      CLOUDY    32  32  99 W12       29.94R WCI  23
DE KALB*       CLOUDY    32  32  99 W12       29.93R FOG     WCI  23
$$

ILZ005-006-012>014-019>023-050600-
NORTHEAST ILLINOIS

CITY           SKY/WX    TMP DP  RH WIND       PRES   REMARKS
CHICAGO-OHARE  CLOUDY    32  30  92 W13G21    29.91R FOG     WCI  22
CHICAGO-MIDWAY CLOUDY    33  30  88 W10       29.93R FOG     WCI  25
AURORA         CLOUDY    33  31  92 SW12      29.94R FOG     WCI  24
LANSING*       CLOUDY    32  32 100 W5        29.94R FOG     WCI  27
JOLIET*        CLOUDY    33  33  98 W5        29.95R FOG     WCI  29
WAUKEGAN       CLOUDY    32  30  92 SW5       29.88R FOG     WCI  27
DUPAGE AIRPORT CLOUDY    32  30  92 SW8       29.92R FOG     WCI  25
KANKAKEE*      CLOUDY    32  32  99 W8G16     29.97R WCI  25
WHEELING       CLOUDY    32  30  92 W10       29.92R WCI  24
MORRIS*        CLOUDY    32  32  98 CALM      29.95S FOG
ROMEOVILLE*    CLOUDY    32  32 100 W8        29.94R FOG     WCI  25
NORTHERLY ISL    N/A     34  32  92 W12         N/A  WCI  25
$$

LMZ740>746-050600-
SOUTHERN LAKE MICHIGAN

STATION/POSITION SKY/WX   TEMP    WIND        PRES    VSBY  WAVE
                          AIR SEA DIR/SP/G                  HT/PER
                          (F)     (DEG/KT/KT) (MB)    (MI)  (FT/S)
HARRISON CRIB              35     270/ 17/ 19   N/A
BURNHAM HARBOR             34     250/ 12/ 13   N/A
CALUMET HARBOR             32     230/  8/ 13 1012.7R
BURNS HARBOR               36     260/ 18/ 21 1013.5R
$$

ILZ025>027-034>036-040-047-049-050-058-095>099-050600-
WEST-CENTRAL ILLINOIS

CITY           SKY/WX    TMP DP  RH WIND       PRES   REMARKS
QUINCY         MOCLDY    34  33  96 SW6       30.00R WCI  29
GALESBURG*     CLOUDY    33  32  96 SW8       29.97S WCI  26
MACOMB*        CLOUDY    33  32  96 SW12      30.02R WCI  24
JACKSONVILLE*  CLOUDY    34  32  92 SW7       30.02S WCI  28
PITTSFIELD*    CLOUDY    35  33  94 CALM      30.02S
$$

ILZ028>032-037-038-041>044-048-051>054-059>061-050600-
CENTRAL ILLINOIS

CITY           SKY/WX    TMP DP  RH WIND       PRES   REMARKS
PONTIAC        CLOUDY    34  34 100 W8        29.98S WCI  27
BLOOMINGTON    CLOUDY    32  30  93 W14       29.98S FOG     WCI  22
DECATUR        CLOUDY    35  32  88 W7        30.01S WCI  29
PEORIA         CLOUDY    34  33  96 W9        29.99S WCI  27
LACON*         CLOUDY    33  32  96 W8        29.98R WCI  26
LINCOLN*       CLOUDY    35  34  96 W6        30.01S WCI  30
SPRINGFIELD    CLOUDY    35  32  88 W8        30.02S WCI  29
TAYLORVILLE    CLOUDY    34  32  93 W9        30.02F WCI  26
$$

ILZ033-039-045-046-055>057-062-063-050600-
EAST-CENTRAL ILLINOIS

CITY           SKY/WX    TMP DP  RH WIND       PRES   REMARKS
CHAMPAIGN      CLOUDY    33  31  92 W8        30.01R WCI  26
RANTOUL*       CLOUDY    34  33  96 W13G18    29.99S WCI  25
MATTOON        CLOUDY    35  31  85 NW10      30.01R WCI  27
PARIS*         CLOUDY    34  33  96 W14       30.02R WCI  24
$$

ILZ079-100>102-050600-
SOUTHWEST ILLINOIS

CITY           SKY/WX    TMP DP  RH WIND       PRES   REMARKS
ALTON          CLOUDY    37  33  86 CALM      30.04S
BELLEVILLE     CLOUDY    39  37  94 NW10      30.03S WCI  32
CAHOKIA*       CLOUDY    39  33  79 NW7       30.04F WCI  34
SPARTA*        CLOUDY    39  34  83 NW5       30.05S
$$

ILZ064>066-069>071-074>076-080>082-084>086-088>090-092>094-050600-
SOUTH-CENTRAL ILLINOIS

CITY           SKY/WX    TMP DP  RH WIND       PRES   REMARKS
CARBONDALE     CLOUDY    40  36  86 NW3       30.05F
CAIRO*         CLOUDY    42  37  82 CALM      30.07S
EFFINGHAM*     CLOUDY    35  35  99 W8        30.06R WCI  29
MARION         CLOUDY    41  39  93 CALM      30.06F
CENTRALIA*     CLOUDY    38  35  90 NW7       30.04S WCI  32
SALEM*         CLOUDY    37  33  85 W9        30.05S WCI  31
METROPOLIS*    CLOUDY    42  37  82 CALM      30.07F
$$

ILZ067-068-072-073-078-083-087-091-050600-
SOUTHEAST ILLINOIS

CITY           SKY/WX    TMP DP  RH WIND       PRES   REMARKS
LAWRENCEVILLE  CLOUDY    38  32  79 W14       30.06R WCI  30
FLORA*         CLOUDY    38  34  86 NW6       30.06R WCI  33
FAIRFIELD*     CLOUDY    38  33  85 CALM      30.05S
HARRISBURG*    CLOUDY    40  37  89 W3        30.07S
ROBINSON*      CLOUDY    36  32  85 NW13      30.05R WCI  28
CARMI*         CLOUDY    39  36  89 NW5       30.06R
$$

ABBREVIATIONS USED IN REMARKS
   TC - TEMPERATURE IN CELSIUS
  WCI - WIND CHILL INDEX
   HX - HEAT INDEX
  VSB - VISIBILITY
$$




USA.gov is the U.S. government's official web portal to all federal, state and local government web resources and services.